Date,TemperatureHighF,TemperatureAvgF,TemperatureLowF,DewpointHighF,DewpointAvgF,DewpointLowF,HumidityHigh,HumidityAvg,HumidityLow,PressureMaxIn,PressureMinIn,WindSpeedMaxMPH,WindSpeedAvgMPH,GustSpeedMaxMPH,PrecipitationSumIn
2013-1-1,14.8,7.4,0.2,5.2,1.0,-3.9,85,75,63,30.12,30.01,11,5,11,0.00
2013-1-2,23.9,18.1,10.6,16.6,11.4,3.6,84,75,59,30.03,29.92,13,6,13,0.00
2013-1-3,26.8,20.4,10.1,20.6,15.8,5.0,86,82,76,30.11,29.93,17,8,17,0.00
2013-1-4,29.9,19.5,9.0,20.0,14.0,4.6,87,79,65,30.07,29.96,22,10,22,0.00
2013-1-5,32.6,21.8,11.9,27.6,17.6,8.2,92,84,77,30.10,29.83,15,6,15,0.00
2013-1-6,29.3,22.5,14.0,22.4,17.1,9.9,85,80,75,30.16,29.96,22,5,22,0.00
2013-1-7,34.9,25.1,11.9,25.4,18.9,7.7,86,77,66,30.15,29.91,24,8,24,0.01
2013-1-8,39.6,31.3,18.9,31.1,25.9,16.3,93,80,66,29.98,29.81,21,5,21,0.04
2013-1-9,38.7,32.6,22.1,30.8,25.2,17.0,85,74,60,30.34,29.80,27,10,27,0.01
2013-1-10,38.9,30.2,19.3,33.0,25.3,15.5,93,82,67,30.36,29.76,18,6,18,0.26
2013-1-11,45.7,39.1,34.9,43.1,37.4,33.0,95,94,89,29.76,29.49,17,6,17,0.02
2013-1-12,46.4,33.6,21.8,42.8,27.4,15.3,90,78,68,29.91,29.50,32,12,32,0.02
2013-1-13,22.0,16.5,11.9,15.3,8.9,4.3,76,71,64,30.08,29.80,21,7,21,0.00
2013-1-14,24.3,14.6,7.2,11.4,6.8,1.8,81,71,55,30.31,30.08,16,5,16,0.00
2013-1-15,28.8,19.2,9.7,15.7,11.2,5.2,84,72,53,30.28,29.94,16,5,16,0.00
2013-1-16,33.1,26.1,16.9,28.2,19.2,9.6,83,75,63,29.95,29.65,26,9,26,0.00
2013-1-17,26.8,19.3,12.6,20.8,7.6,2.6,79,61,47,30.27,29.95,17,4,17,0.00
2013-1-18,40.7,29.4,13.3,32.1,22.3,7.3,81,75,67,30.28,29.71,29,9,29,0.00
2013-1-19,44.6,35.8,14.8,34.0,27.0,3.3,84,71,37,29.86,29.55,35,11,35,0.00
2013-1-20,15.1,9.4,6.1,7.2,-1.1,-2.4,73,62,49,30.19,29.86,28,8,28,0.00
2013-1-21,10.3,2.8,-3.2,2.0,-7.0,-11.5,75,63,51,30.14,29.99,22,9,22,0.00
2013-1-22,8.1,0.7,-7.4,-4.1,-8.4,-13.1,77,66,55,30.22,30.14,16,5,16,0.00
2013-1-23,19.1,11.6,3.2,13.1,3.7,-5.7,84,70,61,30.29,29.95,22,7,22,0.00
2013-1-24,15.5,7.2,-1.6,8.7,-1.6,-8.0,75,67,55,30.51,30.19,14,5,14,0.00
2013-1-25,27.0,19.1,13.0,16.9,11.7,6.0,84,73,60,30.19,29.81,19,8,19,0.00
2013-1-26,25.0,16.8,6.5,13.5,7.9,1.4,80,68,53,30.26,30.07,12,4,12,0.00
2013-1-27,32.8,27.5,21.2,31.0,22.1,12.2,93,80,67,30.19,29.73,18,7,18,0.00
2013-1-28,42.8,35.7,32.6,36.1,32.2,29.6,94,87,74,29.84,29.65,17,4,17,0.27
2013-1-29,54.4,42.1,34.2,51.8,40.2,32.3,96,93,88,29.68,29.39,16,6,16,2.01
2013-1-30,34.4,26.5,14.4,32.8,24.1,10.5,94,90,84,29.51,29.24,17,2,17,0.07
2013-1-31,14.4,9.7,0.2,10.2,3.2,-5.7,83,75,64,30.01,29.51,21,5,21,0.00